When you browse on this site, cookies collect data to enhance your experience and personalize the content and advertising you see.
Visit our Privacy Policy to learn more. By continuing to use the site, you agree to this use of cookies and data.
  • In Hungary
  • List of Countries
  • For 7 days
  • Water Temperature
  • Satellite Maps
  • Weather Map
  • News
  • Weather Widgets
  • user-avatar
    Login

    Hourly Weather Kokoda

    Today, 20 February, Wednesday

    Time Temperature Precipitation Wind Pressure Humidity
    00:00 +21°C° 0 mm 1 mps 659 mmHg 73%
    01:00 +21°C° 0 mm 1 mps 659 mmHg 71%
    02:00 +21°C° 0 mm 1 mps 659 mmHg 71%
    03:00 +21°C° 0 mm 1 mps 658 mmHg 71%
    04:00 +20°C° 0 mm 2 mps 659 mmHg 68%
    05:00 +20°C° 0 mm 2 mps 659 mmHg 69%
    06:00 +20°C° 0 mm 2 mps 659 mmHg 71%
    07:00 +21°C° 0 mm 1 mps 659 mmHg 72%
    08:00 +24°C° 0 mm 2 mps 660 mmHg 63%
    09:00 +27°C° 0 mm 2 mps 661 mmHg 55%
    10:00 +29°C° 0 mm 2 mps 662 mmHg 46%
    11:00 +30°C° 0 mm 2 mps 661 mmHg 44%
    12:00 +31°C° 0 mm 2 mps 661 mmHg 41%
    13:00 +32°C° 0 mm 2 mps 661 mmHg 39%
    14:00 +31°C° 0 mm 2 mps 661 mmHg 42%
    15:00 +31°C° 0 mm 2 mps 660 mmHg 44%
    16:00 +30°C° 0 mm 2 mps 660 mmHg 47%
    17:00 +28°C° 0 mm 2 mps 659 mmHg 56%
    18:00 +25°C° 0 mm 2 mps 659 mmHg 64%
    19:00 +23°C° 0 mm 1 mps 658 mmHg 73%
    20:00 +22°C° 0 mm 1 mps 659 mmHg 71%
    21:00 +22°C° 0 mm 1 mps 659 mmHg 69%
    22:00 +21°C° 0 mm 1 mps 659 mmHg 67%
    23:00 +21°C° 0 mm 1 mps 659 mmHg 66%

    Tomorrow, 21 February, Thursday

    Time Temperature Precipitation Wind Pressure Humidity
    00:00 +20°C° 0 mm 2 mps 658 mmHg 66%
    01:00 +20°C° 0 mm 2 mps 658 mmHg 65%
    02:00 +20°C° 0 mm 2 mps 658 mmHg 66%
    03:00 +20°C° 0 mm 2 mps 658 mmHg 66%
    04:00 +20°C° 0 mm 2 mps 657 mmHg 67%
    05:00 +20°C° 0 mm 2 mps 658 mmHg 67%
    06:00 +20°C° 0 mm 2 mps 658 mmHg 68%
    07:00 +21°C° 0 mm 2 mps 658 mmHg 68%
    08:00 +25°C° 0 mm 2 mps 659 mmHg 59%
    09:00 +28°C° 0 mm 2 mps 660 mmHg 49%
    10:00 +31°C° 0 mm 2 mps 661 mmHg 40%
    11:00 +31°C° 0 mm 2 mps 661 mmHg 37%
    12:00 +32°C° 0 mm 2 mps 661 mmHg 34%
    13:00 +34°C° 0 mm 2 mps 660 mmHg 31%
    14:00 +32°C° 0 mm 2 mps 660 mmHg 35%
    15:00 +31°C° 0 mm 2 mps 659 mmHg 39%
    16:00 +31°C° 0 mm 2 mps 658 mmHg 43%
    17:00 +28°C° 0 mm 1 mps 658 mmHg 53%
    18:00 +26°C° 0 mm 1 mps 658 mmHg 63%
    19:00 +23°C° 0 mm 1 mps 658 mmHg 74%
    20:00 +23°C° 0 mm 1 mps 658 mmHg 73%
    21:00 +22°C° 0 mm 1 mps 659 mmHg 73%
    22:00 +22°C° 0 mm 1 mps 659 mmHg 73%
    23:00 +21°C° 0 mm 1 mps 659 mmHg 71%

    Day after tomorrow, 22 February, Friday

    Time Temperature Precipitation Wind Pressure Humidity
    00:00 +21°C° 0 mm 1 mps 658 mmHg 68%
    01:00 +21°C° 0 mm 1 mps 658 mmHg 66%
    02:00 +21°C° 0 mm 1 mps 658 mmHg 68%
    03:00 +20°C° 0 mm 1 mps 657 mmHg 70%
    04:00 +19°C° 0 mm 2 mps 657 mmHg 71%
    05:00 +21°C° 0 mm 1 mps 657 mmHg 72%
    06:00 +21°C° 0 mm 1 mps 658 mmHg 72%
    07:00 +21°C° 0 mm 1 mps 658 mmHg 73%
    08:00 +24°C° 0 mm 1 mps 659 mmHg 61%
    09:00 +27°C° 0 mm 1 mps 660 mmHg 50%
    10:00 +30°C° 0 mm 1 mps 661 mmHg 38%
    11:00 +31°C° 0 mm 1 mps 661 mmHg 36%
    12:00 +32°C° 0 mm 1 mps 661 mmHg 35%
    13:00 +34°C° 0 mm 2 mps 660 mmHg 33%
    14:00 +31°C° 0.1 mm 1 mps 659 mmHg 43%
    15:00 +29°C° 0.1 mm 1 mps 658 mmHg 53%
    16:00 +26°C° 0.1 mm 1 mps 657 mmHg 62%
    17:00 +25°C° 0.8 mm 1 mps 657 mmHg 70%
    18:00 +24°C° 0.8 mm 1 mps 657 mmHg 77%
    19:00 +20°C° 0.8 mm 0 mps 658 mmHg 85%
    20:00 +20°C° 0.2 mm 0 mps 658 mmHg 86%
    21:00 +20°C° 0.2 mm 0 mps 658 mmHg 88%
    22:00 +19°C° 0.2 mm 0 mps 659 mmHg 89%
    23:00 +19°C° 0.1 mm 0 mps 658 mmHg 89%

    23 February, Saturday

    Time Temperature Precipitation Wind Pressure Humidity
    00:00 +19°C° 0.1 mm 0 mps 658 mmHg 89%
    01:00 +19°C° 0.1 mm 0 mps 658 mmHg 89%
    02:00 +18°C° 0 mm 0 mps 657 mmHg 89%
    03:00 +18°C° 0 mm 0 mps 657 mmHg 89%
    04:00 +18°C° 0 mm 0 mps 657 mmHg 88%
    05:00 +18°C° 0 mm 0 mps 657 mmHg 87%
    06:00 +18°C° 0 mm 0 mps 658 mmHg 85%
    07:00 +19°C° 0 mm 0 mps 658 mmHg 84%
    08:00 +21°C° 0 mm 0 mps 659 mmHg 74%
    09:00 +24°C° 0 mm 0 mps 660 mmHg 63%
    10:00 +28°C° 0 mm 1 mps 661 mmHg 53%
    11:00 +28°C° 0.2 mm 1 mps 660 mmHg 55%
    12:00 +28°C° 0.2 mm 1 mps 660 mmHg 56%
    13:00 +27°C° 0.2 mm 1 mps 659 mmHg 58%
    14:00 +27°C° 0.6 mm 1 mps 658 mmHg 62%
    15:00 +26°C° 0.6 mm 1 mps 658 mmHg 67%
    16:00 +23°C° 0.6 mm 0 mps 657 mmHg 71%
    17:00 +21°C° 0.6 mm 0 mps 657 mmHg 77%
    18:00 +20°C° 0.6 mm 0 mps 657 mmHg 84%
    19:00 +19°C° 0.6 mm 0 mps 658 mmHg 90%
    20:00 +19°C° 0.4 mm 0 mps 658 mmHg 90%
    21:00 +19°C° 0.4 mm 0 mps 659 mmHg 90%
    22:00 +21°C° 0.4 mm 1 mps 659 mmHg 90%
    23:00 +20°C° 0.2 mm 1 mps 659 mmHg 89%

    24 February, Sunday

    Time Temperature Precipitation Wind Pressure Humidity
    00:00 +20°C° 0.2 mm 1 mps 658 mmHg 87%
    01:00 +20°C° 0.2 mm 1 mps 658 mmHg 86%
    02:00 +20°C° 0.2 mm 1 mps 658 mmHg 85%
    03:00 +18°C° 0.2 mm 0 mps 658 mmHg 83%
    04:00 +18°C° 0.2 mm 0 mps 657 mmHg 82%
    05:00 +18°C° 0.1 mm 0 mps 658 mmHg 81%
    06:00 +20°C° 0.1 mm 1 mps 659 mmHg 80%
    07:00 +20°C° 0.1 mm 1 mps 659 mmHg 78%
    08:00 +23°C° 0 mm 1 mps 660 mmHg 70%
    09:00 +25°C° 0 mm 1 mps 661 mmHg 62%
    10:00 +27°C° 0 mm 1 mps 661 mmHg 54%
    11:00 +28°C° 0.1 mm 1 mps 661 mmHg 53%
    12:00 +28°C° 0.1 mm 1 mps 660 mmHg 52%
    13:00 +29°C° 0.1 mm 1 mps 660 mmHg 50%
    14:00 +28°C° 0.3 mm 1 mps 660 mmHg 53%
    15:00 +28°C° 0.3 mm 1 mps 659 mmHg 56%
    16:00 +27°C° 0.3 mm 1 mps 659 mmHg 60%
    17:00 +25°C° 0.4 mm 1 mps 659 mmHg 68%
    18:00 +24°C° 0.4 mm 1 mps 659 mmHg 77%
    19:00 +22°C° 0.4 mm 1 mps 659 mmHg 85%
    20:00 +22°C° 0.1 mm 1 mps 659 mmHg 87%
    21:00 +21°C° 0.1 mm 1 mps 659 mmHg 88%
    22:00 +21°C° 0.1 mm 1 mps 660 mmHg 90%
    23:00 +20°C° 0.1 mm 1 mps 659 mmHg 89%

    25 February, Monday

    Time Temperature Precipitation Wind Pressure Humidity
    00:00 +20°C° 0.1 mm 1 mps 659 mmHg 87%
    01:00 +20°C° 0.1 mm 1 mps 659 mmHg 86%
    02:00 +20°C° 0 mm 1 mps 658 mmHg 83%
    03:00 +20°C° 0 mm 1 mps 658 mmHg 80%
    04:00 +19°C° 0 mm 1 mps 658 mmHg 78%
    05:00 +20°C° 0 mm 1 mps 659 mmHg 75%
    06:00 +20°C° 0 mm 1 mps 659 mmHg 72%
    07:00 +20°C° 0 mm 1 mps 660 mmHg 70%
    08:00 +23°C° 0 mm 1 mps 660 mmHg 61%
    09:00 +26°C° 0 mm 1 mps 661 mmHg 53%
    10:00 +28°C° 0 mm 1 mps 662 mmHg 44%
    11:00 +29°C° 0 mm 1 mps 662 mmHg 44%
    12:00 +30°C° 0 mm 1 mps 661 mmHg 44%
    13:00 +30°C° 0 mm 1 mps 661 mmHg 44%
    14:00 +29°C° 0.2 mm 1 mps 660 mmHg 49%
    15:00 +28°C° 0.2 mm 1 mps 660 mmHg 54%
    16:00 +27°C° 0.2 mm 1 mps 659 mmHg 59%
    17:00 +26°C° 0.3 mm 1 mps 659 mmHg 67%
    18:00 +24°C° 0.3 mm 1 mps 659 mmHg 76%
    19:00 +22°C° 0.3 mm 1 mps 659 mmHg 85%
    20:00 +20°C° 0.2 mm 0 mps 660 mmHg 87%
    21:00 +20°C° 0.2 mm 0 mps 660 mmHg 90%
    22:00 +19°C° 0.2 mm 0 mps 660 mmHg 92%
    23:00 +19°C° 0.1 mm 0 mps 660 mmHg 92%
    Show more